Change the Weather History Date:

Friday, December 30, 2011

  Actual Average Record
Temperature  
Mean Temperature 36 °F -  
Max Temperature 45 °F 36 °F 64 °F (1984)
Min Temperature 26 °F 23 °F -3 °F (1917)
Degree Days  
Heating Degree Days 30    
Moisture  
Dew Point 29 °F    
Average Humidity 85    
Maximum Humidity 93    
Minimum Humidity 65    
Precipitation  
Precipitation 0.00 in - - ()
Sea Level Pressure  
Sea Level Pressure 29.97 in    
Wind  
Wind Speed 2 mph (ESE)    
Max Wind Speed 6 mph    
Max Gust Speed -    
Visibility 4 miles    
Events Fog    
Averages and records for this station are not official NWS values.
T = Trace of Precipitation, MM = Missing Value Source: NWS Daily Summary

Daily Weather History Graph

Daily Weather History Graph

Search for Another Location

Airport or City:

Trip Planner

Search our weather history database for the weather conditions in past years. The results will help you decide how hot, cold, wet, or windy it might be!

Date:

Astronomy

Dec. 30, 2011 Rise Set
Actual Time 7:29 AM EST 4:50 PM EST
Civil Twilight 6:58 AM EST 5:20 PM EST
Nautical Twilight 6:24 AM EST 5:55 PM EST
Astronomical Twilight 5:51 AM EST 6:28 PM EST
Moon 10:47 AM EST (12/30) 11:24 PM EST (12/30)
Length of Visible Light 10h 21m
Length of Day
9h 20m
Waxing Crescent, 35% of the Moon is Illuminated
Dec 30
Waxing Crescent
Jan 1
First Quarter
Jan 9
Full
Jan 16
Last Quarter
Jan 23
New

Hourly Weather History & Observations

Time (EST) Temp. Windchill Dew Point Humidity Pressure Visibility Wind Dir Wind Speed Gust Speed Precip Events Conditions
12:56 AM 32.0 °F 28.7 °F 28.9 °F 88% 29.97 in 5.0 mi East 3.5 mph - 0.00 in   Overcast
1:56 AM 30.9 °F - 28.0 °F 89% 29.97 in 5.0 mi Calm Calm - N/A   Clear
2:56 AM 28.0 °F - 26.1 °F 92% 29.98 in 3.0 mi Calm Calm - N/A   Partly Cloudy
3:08 AM 28.4 °F - 26.6 °F 93% 29.96 in 2.5 mi Calm Calm - N/A   Scattered Clouds
3:22 AM 28.4 °F - 26.6 °F 93% 29.96 in 1.5 mi Calm Calm - N/A   Scattered Clouds
3:37 AM 28.4 °F - 26.6 °F 93% 29.96 in 2.5 mi Calm Calm - N/A   Partly Cloudy
3:47 AM 28.4 °F - 26.6 °F 93% 29.96 in 1.0 mi Calm Calm - N/A   Clear
3:54 AM 26.6 °F - 24.8 °F 93% 29.96 in 0.5 mi Calm Calm - N/A Fog Light Freezing Fog
4:00 AM 26.6 °F - 24.8 °F 93% 29.96 in 1.5 mi Calm Calm - N/A   Clear
4:09 AM 26.6 °F - 24.8 °F 93% 29.96 in 2.0 mi Calm Calm - N/A   Clear
5:51 AM 26.6 °F - 24.8 °F 93% 29.99 in 3.0 mi Calm Calm - N/A   Clear
5:56 AM 26.1 °F - 23.0 °F 88% 30.01 in 3.0 mi Calm Calm - N/A   Clear
6:56 AM 26.1 °F 21.9 °F 23.0 °F 88% 30.02 in 4.0 mi WSW 3.5 mph - N/A   Clear
7:38 AM 26.6 °F 22.6 °F 24.8 °F 93% 30.01 in 2.5 mi WSW 3.5 mph - N/A   Clear
8:30 AM 28.4 °F 23.3 °F 26.6 °F 93% 30.03 in 1.8 mi WSW 4.6 mph - N/A   Clear
8:56 AM 28.0 °F 24.2 °F 26.1 °F 92% 30.05 in 1.5 mi WSW 3.5 mph - N/A   Clear
9:49 AM 30.2 °F - 28.4 °F 93% 30.03 in 2.5 mi Calm Calm - N/A   Clear
9:56 AM 30.9 °F 26.2 °F 28.9 °F 92% 30.06 in 2.5 mi SSE 4.6 mph - N/A   Clear
10:39 AM 33.8 °F - 30.2 °F 87% 30.04 in 3.0 mi Calm Calm - N/A   Clear
10:56 AM 35.1 °F 31.0 °F 30.0 °F 82% 30.04 in 3.0 mi NNE 4.6 mph - N/A   Haze
12:56 PM 42.1 °F 40.2 °F 32.0 °F 67% 29.99 in 7.0 mi NE 3.5 mph - N/A   Scattered Clouds
1:56 PM 44.1 °F 42.5 °F 33.1 °F 65% 29.97 in 8.0 mi East 3.5 mph - N/A   Overcast
2:56 PM 45.0 °F 42.6 °F 34.0 °F 65% 29.95 in 8.0 mi East 4.6 mph - N/A   Overcast
3:56 PM 43.0 °F 41.3 °F 34.0 °F 71% 29.94 in 8.0 mi East 3.5 mph - N/A   Clear
4:56 PM 42.1 °F - 33.1 °F 70% 29.93 in 7.0 mi Calm Calm - N/A   Clear
5:56 PM 39.9 °F 35.8 °F 33.1 °F 77% 29.93 in 9.0 mi ESE 5.8 mph - N/A   Clear
6:56 PM 41.0 °F - 33.1 °F 73% 29.94 in 10.0 mi Calm Calm - N/A   Clear
7:56 PM 36.0 °F - 32.0 °F 86% 29.95 in 6.0 mi Calm Calm - N/A   Clear
8:56 PM 37.0 °F - 32.0 °F 82% 29.94 in 7.0 mi Calm Calm - N/A   Clear
9:56 PM 37.9 °F 35.5 °F 33.1 °F 83% 29.91 in 9.0 mi SE 3.5 mph - N/A   Clear
10:56 PM 37.0 °F - 32.0 °F 82% 29.88 in 7.0 mi Calm Calm - N/A   Clear
11:56 PM 36.0 °F - 33.1 °F 89% 29.87 in 4.0 mi Calm Calm - N/A   Partly Cloudy